When you browse on this site, cookies collect data to enhance your experience and personalize the content and advertising you see.
Visit our Privacy Policy to learn more. By continuing to use the site, you agree to this use of cookies and data.
  • In United Kingdom
  • List of Countries
  • For 7 days
  • Water Temperature
  • Weather Map
  • Weather Widgets
  • user-avatar
    Login

    Hourly Weather Peshchera

    Today, 16 October, Wednesday

    Time Temperature Precipitation Wind Pressure Humidity
    00:00 +16°C° 0 mm 3 mps 722 mmHg 58%
    01:00 +16°C° 0 mm 3 mps 722 mmHg 57%
    02:00 +12°C° 0 mm 1 mps 721 mmHg 63%
    03:00 +11°C° 0 mm 3 mps 721 mmHg 70%
    04:00 +13°C° 0 mm 2 mps 721 mmHg 62%
    05:00 +14°C° 0 mm 2 mps 721 mmHg 57%
    06:00 +14°C° 0 mm 2 mps 721 mmHg 54%
    07:00 +13°C° 0 mm 3 mps 722 mmHg 56%
    08:00 +13°C° 0 mm 3 mps 722 mmHg 60%
    09:00 +14°C° 0 mm 3 mps 722 mmHg 69%
    10:00 +16°C° 0 mm 2 mps 722 mmHg 73%
    11:00 +17°C° 0 mm 2 mps 723 mmHg 72%
    12:00 +19°C° 0 mm 1 mps 723 mmHg 73%
    13:00 +18°C° 0 mm 0 mps 723 mmHg 74%
    14:00 +18°C° 0 mm 0 mps 723 mmHg 74%
    15:00 +18°C° 0 mm 0 mps 723 mmHg 75%
    16:00 +18°C° 0 mm 0 mps 723 mmHg 80%
    17:00 +18°C° 0 mm 0 mps 722 mmHg 85%
    18:00 +19°C° 0 mm 1 mps 722 mmHg 82%
    19:00 +19°C° 0 mm 1 mps 722 mmHg 78%
    20:00 +18°C° 0 mm 1 mps 723 mmHg 76%
    21:00 +17°C° 0 mm 2 mps 723 mmHg 77%
    22:00 +16°C° 0 mm 2 mps 723 mmHg 79%
    23:00 +16°C° 0 mm 2 mps 723 mmHg 79%

    Tomorrow, 17 October, Thursday

    Time Temperature Precipitation Wind Pressure Humidity
    00:00 +15°C° 0 mm 2 mps 723 mmHg 80%
    01:00 +15°C° 0 mm 2 mps 723 mmHg 80%
    02:00 +14°C° 0 mm 2 mps 723 mmHg 81%
    03:00 +14°C° 0 mm 2 mps 723 mmHg 82%
    04:00 +14°C° 0 mm 2 mps 723 mmHg 82%
    05:00 +14°C° 0 mm 2 mps 723 mmHg 82%
    06:00 +14°C° 0 mm 2 mps 723 mmHg 81%
    07:00 +14°C° 0 mm 2 mps 723 mmHg 80%
    08:00 +14°C° 0 mm 2 mps 723 mmHg 81%
    09:00 +15°C° 0 mm 1 mps 724 mmHg 85%
    10:00 +16°C° 0 mm 1 mps 724 mmHg 87%
    11:00 +18°C° 0 mm 1 mps 724 mmHg 85%
    12:00 +17°C° 0 mm 0 mps 725 mmHg 84%
    13:00 +17°C° 0 mm 0 mps 725 mmHg 84%
    14:00 +19°C° 0 mm 1 mps 725 mmHg 84%
    15:00 +20°C° 0 mm 1 mps 724 mmHg 85%
    16:00 +19°C° 0 mm 1 mps 724 mmHg 91%
    17:00 +19°C° 0 mm 1 mps 724 mmHg 98%
    18:00 +18°C° 0 mm 1 mps 724 mmHg 98%
    19:00 +16°C° 0 mm 1 mps 724 mmHg 98%
    20:00 +15°C° 0 mm 0 mps 724 mmHg 97%
    21:00 +16°C° 0 mm 1 mps 724 mmHg 92%
    22:00 +15°C° 0 mm 1 mps 724 mmHg 86%
    23:00 +15°C° 0 mm 1 mps 724 mmHg 84%

    Day after tomorrow, 18 October, Friday

    Time Temperature Precipitation Wind Pressure Humidity
    00:00 +15°C° 0 mm 1 mps 724 mmHg 84%
    01:00 +15°C° 0 mm 1 mps 724 mmHg 81%
    02:00 +15°C° 0 mm 2 mps 724 mmHg 79%
    03:00 +14°C° 0 mm 2 mps 724 mmHg 80%
    04:00 +14°C° 0 mm 2 mps 723 mmHg 82%
    05:00 +14°C° 0 mm 2 mps 724 mmHg 85%
    06:00 +13°C° 0 mm 2 mps 724 mmHg 86%
    07:00 +13°C° 0 mm 2 mps 724 mmHg 87%
    08:00 +13°C° 0 mm 2 mps 724 mmHg 88%
    09:00 +14°C° 0 mm 2 mps 724 mmHg 91%
    10:00 +15°C° 0 mm 2 mps 724 mmHg 90%
    11:00 +16°C° 0 mm 2 mps 724 mmHg 89%
    12:00 +17°C° 0 mm 2 mps 724 mmHg 89%
    13:00 +18°C° 0 mm 2 mps 724 mmHg 87%
    14:00 +20°C° 0 mm 1 mps 724 mmHg 85%
    15:00 +20°C° 0 mm 1 mps 724 mmHg 87%
    16:00 +19°C° 0 mm 1 mps 724 mmHg 92%
    17:00 +19°C° 0 mm 1 mps 724 mmHg 99%
    18:00 +18°C° 0 mm 1 mps 723 mmHg 99%
    19:00 +15°C° 0 mm 0 mps 723 mmHg 100%
    20:00 +16°C° 0 mm 1 mps 723 mmHg 100%
    21:00 +15°C° 0 mm 2 mps 723 mmHg 99%
    22:00 +15°C° 0 mm 1 mps 723 mmHg 98%
    23:00 +15°C° 0 mm 1 mps 724 mmHg 100%

    19 October, Saturday

    Time Temperature Precipitation Wind Pressure Humidity
    00:00 +14°C° 0 mm 2 mps 724 mmHg 100%
    01:00 +14°C° 0 mm 1 mps 723 mmHg 100%
    02:00 +13°C° 0 mm 2 mps 723 mmHg 99%
    03:00 +12°C° 0 mm 2 mps 723 mmHg 99%
    04:00 +12°C° 0 mm 2 mps 723 mmHg 100%
    05:00 +12°C° 0 mm 2 mps 723 mmHg 100%
    06:00 +13°C° 0 mm 2 mps 723 mmHg 100%
    07:00 +13°C° 0 mm 2 mps 723 mmHg 100%
    08:00 +13°C° 0 mm 2 mps 723 mmHg 100%
    09:00 +13°C° 0 mm 2 mps 724 mmHg 100%
    10:00 +14°C° 0 mm 1 mps 724 mmHg 100%
    11:00 +14°C° 0 mm 2 mps 724 mmHg 100%
    12:00 +14°C° 0 mm 3 mps 724 mmHg 98%
    13:00 +16°C° 0 mm 3 mps 724 mmHg 98%
    14:00 +16°C° 0 mm 2 mps 724 mmHg 97%
    15:00 +16°C° 0 mm 2 mps 724 mmHg 96%
    16:00 +16°C° 0 mm 1 mps 724 mmHg 96%
    17:00 +16°C° 0 mm 2 mps 724 mmHg 97%
    18:00 +15°C° 0 mm 1 mps 724 mmHg 100%
    19:00 +14°C° 0 mm 1 mps 724 mmHg 100%
    20:00 +14°C° 0 mm 2 mps 724 mmHg 98%
    21:00 +14°C° 0 mm 2 mps 724 mmHg 94%
    22:00 +14°C° 0 mm 2 mps 724 mmHg 93%
    23:00 +14°C° 0 mm 2 mps 724 mmHg 89%

    20 October, Sunday

    Time Temperature Precipitation Wind Pressure Humidity
    00:00 +14°C° 0 mm 2 mps 724 mmHg 84%
    01:00 +14°C° 0 mm 2 mps 724 mmHg 80%
    02:00 +14°C° 0 mm 2 mps 724 mmHg 77%

    21 October, Monday

    Time Temperature Precipitation Wind Pressure Humidity
    Show more